Time,TemperatureF,DewpointF,PressureIn,WindDirection,WindDirectionDegrees,WindSpeedMPH,WindSpeedGustMPH,Humidity,HourlyPrecipIn,Conditions,Clouds,dailyrainin,SoftwareType,DateUTC
2013-10-23 09:43:00,31.0,28.0,30.29,ESE,103,0.0,0.0,90,-99.99,,,-99.99,,2013-10-23 15:43:00,
2013-10-23 10:41:00,50.0,28.0,30.23,WSW,239,0.0,0.0,42,-99.99,,,-99.99,,2013-10-23 16:41:00,
2013-10-23 10:53:00,48.0,32.0,30.24,SW,229,0.0,0.0,53,-99.99,,,-99.99,,2013-10-23 16:53:00,
2013-10-23 11:12:00,50.0,28.0,30.23,WSW,239,0.0,0.0,42,-99.99,,,-99.99,,2013-10-23 17:12:00,
2013-10-23 11:22:00,50.0,28.0,30.23,WSW,239,0.0,0.0,42,-99.99,,,-99.99,,2013-10-23 17:22:00,
2013-10-23 11:33:00,50.0,28.0,30.23,WSW,239,0.0,0.0,42,-99.99,,,-99.99,,2013-10-23 17:33:00,
2013-10-23 11:52:00,56.0,28.0,30.21,East,100,2.0,0.0,34,-99.99,,,-99.99,,2013-10-23 17:52:00,
2013-10-23 12:12:00,58.0,29.0,30.21,NE,53,4.0,0.0,33,-99.99,,,-99.99,,2013-10-23 18:12:00,
2013-10-23 12:22:00,58.0,27.0,30.20,NE,43,2.0,0.0,30,-99.99,,,-99.99,,2013-10-23 18:22:00,
2013-10-23 12:32:00,58.0,27.0,30.20,NE,43,2.0,0.0,30,-99.99,,,-99.99,,2013-10-23 18:32:00,
2013-10-23 12:41:00,58.0,27.0,30.20,NE,43,2.0,0.0,30,-99.99,,,-99.99,,2013-10-23 18:41:00,
2013-10-23 12:51:00,60.0,28.0,30.18,NNE,30,7.0,0.0,29,-99.99,,,-99.99,,2013-10-23 18:51:00,
2013-10-23 13:11:00,61.0,28.0,30.18,NNE,28,3.0,0.0,28,-99.99,,,-99.99,,2013-10-23 19:11:00,
2013-10-23 13:21:00,62.0,28.0,30.17,NE,56,1.0,0.0,27,-99.99,,,-99.99,,2013-10-23 19:21:00,
2013-10-23 13:42:00,62.0,28.0,30.16,NW,322,4.0,0.0,27,-99.99,,,-99.99,,2013-10-23 19:42:00,
2013-10-23 13:53:00,62.0,27.0,30.16,NE,47,4.0,0.0,26,-99.99,,,-99.99,,2013-10-23 19:53:00,
2013-10-23 14:02:00,62.0,27.0,30.16,NE,47,4.0,0.0,26,-99.99,,,-99.99,,2013-10-23 20:02:00,
2013-10-23 14:11:00,62.0,27.0,30.16,NE,47,4.0,0.0,26,-99.99,,,-99.99,,2013-10-23 20:11:00,
2013-10-23 14:22:00,63.0,24.0,30.14,North,8,6.0,0.0,22,-99.99,,,-99.99,,2013-10-23 20:22:00,
2013-10-23 14:33:00,63.0,24.0,30.14,North,8,6.0,0.0,22,-99.99,,,-99.99,,2013-10-23 20:33:00,
2013-10-23 14:42:00,63.0,24.0,30.14,North,8,6.0,0.0,22,-99.99,,,-99.99,,2013-10-23 20:42:00,
2013-10-23 14:52:00,64.0,27.0,30.13,NNE,30,8.0,0.0,25,-99.99,,,-99.99,,2013-10-23 20:52:00,
2013-10-23 15:02:00,64.0,27.0,30.13,NNE,30,8.0,0.0,25,-99.99,,,-99.99,,2013-10-23 21:02:00,
2013-10-23 15:11:00,64.0,27.0,30.13,NNE,30,8.0,0.0,25,-99.99,,,-99.99,,2013-10-23 21:11:00,
2013-10-23 15:21:00,65.0,28.0,30.12,NE,39,4.0,0.0,25,-99.99,,,-99.99,,2013-10-23 21:21:00,
2013-10-23 15:41:00,64.0,27.0,30.11,NNE,21,3.0,0.0,25,-99.99,,,-99.99,,2013-10-23 21:41:00,
2013-10-23 15:43:00,65.0,28.0,30.12,NW,322,4.0,0.0,25,-99.99,,,-99.99,,2013-10-23 21:43:00,
2013-10-23 15:54:00,65.0,28.0,30.11,NW,316,5.0,0.0,25,-99.99,,,-99.99,,2013-10-23 21:54:00,
2013-10-23 16:13:00,64.0,27.0,30.11,NNE,21,3.0,0.0,25,-99.99,,,-99.99,,2013-10-23 22:13:00,
2013-10-23 16:23:00,64.0,27.0,30.11,NNE,21,3.0,0.0,25,-99.99,,,-99.99,,2013-10-23 22:23:00,
2013-10-23 16:33:00,64.0,27.0,30.11,NNE,21,3.0,0.0,25,-99.99,,,-99.99,,2013-10-23 22:33:00,
2013-10-23 16:54:00,64.0,29.0,30.10,NNE,19,1.0,0.0,27,-99.99,,,-99.99,,2013-10-23 22:54:00,
2013-10-23 17:12:00,63.0,29.0,30.10,ENE,63,4.0,0.0,28,-99.99,,,-99.99,,2013-10-23 23:12:00,
2013-10-23 17:22:00,62.0,29.0,30.10,North,360,1.0,0.0,28,-99.99,,,-99.99,,2013-10-23 23:22:00,
2013-10-23 17:42:00,62.0,29.0,30.11,NE,51,2.0,0.0,28,-99.99,,,-99.99,,2013-10-23 23:42:00,
2013-10-23 17:52:00,61.0,27.0,30.11,NNW,338,3.0,0.0,27,-99.99,,,-99.99,,2013-10-23 23:52:00,
2013-10-23 18:12:00,60.0,28.0,30.11,NNW,332,0.0,0.0,29,-99.99,,,-99.99,,2013-10-24 00:12:00,
2013-10-23 18:21:00,58.0,27.0,30.12,NNW,338,0.0,0.0,30,-99.99,,,-99.99,,2013-10-24 00:21:00,
2013-10-23 18:42:00,56.0,26.0,30.12,East,94,2.0,0.0,31,-99.99,,,-99.99,,2013-10-24 00:42:00,